[[{"header":{"parameterUnit":"m.s-1","parameterCategory":1,"la1":30.2991,"la2":30.254,"lo1":-89.0895,"lo2":-89.0444,"dy":0.0017,"dx":0.0017,"nx":28,"ny":28,"refTime":"2024-04-19T21:00:00:Z","depth":0,"parameterNumber":2,"parameterNumberName":"U-component_of_WINDS"},"data":[0,0,0,0,0,0,0,0,0,0,0,0,0,0,0,0,0,0,0,0,0,0,0,0,0,0,0,0,0,0,0,0,0,0,0,0,0,0,0,0,0,0,0,0,0,0,0,0,0,0,0,0,0,0,0,0,0,0,0.4359,0.4359,0,0.4379,0.4379,0.4379,0.4352,0.4351,0.4351,0.435,0.437,0.4372,0.4373,0,0,0,0,0,0,0,0,0,0,0,0,0,0.4298,0.4299,0.4359,0.4359,0.4359,0.4379,0.4379,0.4379,0.4353,0.4351,0.435,0.4349,0.437,0.4371,0.4373,0,0,0,0,0,0,0,0,0,0,0,0,0,0.4322,0.43,0.4359,0.4348,0.4348,0.4379,0.4379,0.4379,0.4353,0.4351,0.435,0.4349,0.4369,0.4371,0.4373,0.4416,0,0,0.438,0.4381,0,0,0,0,0,0,0,0,0.432,0.4324,0.435,0.4349,0.4348,0.4362,0.4365,0.4391,0.4353,0.4351,0.435,0.4348,0.4369,0.4371,0.4378,0.4416,0.4417,0.438,0.4382,0.4382,0.4383,0,0,0,0,0,0,0,0.4319,0.4323,0.4367,0.435,0.4349,0.4343,0.4344,0.437,0.4368,0.4351,0.4349,0.4352,0.4368,0.4376,0.4378,0.4418,0.438,0.4382,0.4383,0.4384,0.4492,0.4493,0,0,0,0,0,0,0.4318,0.4322,0.4366,0.4367,0.4331,0.4345,0.4347,0.4359,0.4367,0.4367,0.4353,0.435,0.4373,0.4375,0.4378,0.4428,0.4382,0.4384,0.4386,0.449,0.4492,0.4494,0,0,0,0,0,0,0.4317,0.4323,0.4365,0.4344,0.4349,0.4348,0.4361,0.436,0.4368,0.4369,0.4368,0.4361,0.4372,0.4375,0.4406,0.4429,0.4385,0.4387,0.4488,0.4491,0.4493,0.4529,0,0,0,0,0,0,0.4316,0.4322,0.4338,0.4345,0.435,0.4393,0.4362,0.4361,0.4371,0.4368,0.4376,0.4376,0.4371,0.4403,0.4409,0.4431,0.4389,0.4486,0.4489,0.4492,0.4526,0.4532,0.4537,0,0,0,0,0,0.4313,0.4348,0.4339,0.4345,0.437,0.4395,0.4398,0.4391,0.4373,0.4389,0.439,0.4376,0.4425,0.4407,0.4412,0.4436,0.4485,0.4489,0.4492,0.4523,0.4531,0.4537,0,0,0,0,0,0,0.4345,0.4349,0.4339,0.4377,0.4385,0.439,0.441,0.4399,0.4413,0.441,0.44,0.4402,0.4435,0.4438,0.4418,0.4477,0.4452,0.4457,0.4474,0.4481,0.4487,0.4486,0.4391,0,0,0,0,0,0.4356,0.4375,0.4377,0.441,0.4415,0.4412,0.4422,0.4416,0.4424,0.4428,0.4431,0.444,0.4457,0.4469,0.4485,0.4525,0.4527,0.4544,0.455,0.4555,0.456,0.4581,0.4589,0.4505,0.4505,0.4505,0,0,0.4379,0.4384,0.4397,0.4417,0.4423,0.4443,0.4415,0.4438,0.4453,0.4432,0.4461,0.4463,0.4473,0.4509,0.4524,0.4512,0.4583,0.4559,0.4563,0.4565,0.4585,0.4593,0.46,0.4508,0.4507,0.4507,0,0,0.4433,0.4438,0.4466,0.4472,0.4482,0.4479,0.4486,0.4492,0.4493,0.4522,0.4506,0.4524,0.4554,0.4561,0.4569,0.4624,0.4612,0.4629,0.4661,0.4682,0.4689,0.4694,0.4714,0.4722,0.4634,0.4634,0.4634,0,0.4461,0.4491,0.4482,0.4505,0.4514,0.4496,0.4524,0.453,0.4545,0.4551,0.4537,0.4575,0.458,0.4617,0.463,0.4637,0.4644,0.4629,0.4688,0.4694,0.4699,0.4718,0.4726,0.4636,0.4636,0.4636,0.4635,0,0.4525,0.4546,0.4567,0.4581,0.4593,0.4619,0.4613,0.4626,0.4618,0.4617,0.4647,0.4652,0.4669,0.4677,0.467,0.4713,0.4705,0.469,0.4665,0.471,0.4727,0.4735,0.4639,0.4638,0.4638,0.4637,0,0,0.46,0.4608,0.4616,0.4622,0.463,0.4646,0.4671,0.4687,0.4698,0.4708,0.4729,0.4755,0.474,0.4749,0.4742,0.476,0.4804,0.4743,0.4743,0.4755,0.4852,0.4864,0.4873,0.4795,0.4797,0.4798,0.4852,0,0.4654,0.4697,0.4689,0.473,0.475,0.4731,0.4753,0.476,0.476,0.4776,0.4775,0.4793,0.4773,0.4778,0.4795,0.4795,0.4824,0.4791,0.4815,0.4816,0.4814,0.4882,0.4895,0.4946,0.4859,0.486,0.4861,0,0.4722,0.4735,0.4779,0.4784,0.4791,0.4811,0.4825,0.484,0.4848,0.4846,0.4856,0.4845,0.487,0.4844,0.4877,0.4855,0.4864,0.4866,0.4867,0.487,0.4842,0.4888,0.4962,0.497,0.4871,0.487,0.487,0,0.4773,0.4801,0.4831,0.4836,0.4843,0.4857,0.486,0.4867,0.4877,0.4889,0.4895,0.491,0.4918,0.493,0.4923,0.4905,0.4958,0.4932,0.4958,0.4958,0.4971,0.497,0.5048,0.4975,0.4975,0.4975,0.4975,0,0.4835,0.4862,0.4854,0.4872,0.4902,0.4892,0.4923,0.4924,0.4929,0.4948,0.4932,0.495,0.494,0.4956,0.4951,0.498,0.4984,0.4983,0.4982,0.4985,0.4985,0.4992,0.4988,0.4977,0.4976,0.4976,0.4975,0,0.4897,0.4892,0.4924,0.4927,0.4929,0.4951,0.4954,0.4971,0.4968,0.4991,0.4996,0.4993,0.5012,0.5006,0.5026,0.5023,0.5059,0.5053,0.5057,0.5055,0.5082,0.508,0.5168,0.5179,0.5098,0.5099,0.5099,0,0.4937,0.4958,0.4964,0.4975,0.4979,0.4997,0.5007,0.4998,0.5009,0.5019,0.5035,0.5052,0.5065,0.5096,0.5095,0.511,0.5105,0.5134,0.5107,0.511,0.5106,0.5105,0.5107,0.514,0.5141,0.5142,0.5143,0,0.5009,0.5005,0.5021,0.5035,0.5047,0.5058,0.5068,0.5077,0.5069,0.5082,0.5101,0.5111,0.5131,0.5148,0.5162,0.5165,0.5153,0.5151,0.5158,0.5162,0.5164,0.5164,0.5073,0.5149,0.5149,0.5148,0.5148,0.5148,0.5062,0.508,0.5086,0.5103,0.5109,0.5118,0.5135,0.5134,0.5149,0.5165,0.5159,0.518,0.5187,0.5204,0.5209,0.5225,0.5214,0.5224,0.5227,0.5229,0.5233,0.516,0.5228,0.5228,0.5227,0.5227,0.5227,0,0.5133,0.5136,0.5152,0.5166,0.518,0.5166,0.5175,0.5188,0.5207,0.5214,0.5227,0.5249,0.5265,0.5265,0.528,0.5294,0.5288,0.5298,0.5298,0.5299,0.5242,0.5235,0.5302,0.5302,0.5302,0.5302,0.5302,0.5302,0.5172,0.5201,0.5199,0.523,0.5233,0.5254,0.5261,0.5269,0.5274,0.5299,0.5313,0.5312,0.5317,0.5332,0.5346,0.5346,0.5353,0.5365,0.5362,0.531,0.5303,0.5295,0.5289,0.5366,0.5366,0.5417,0.5418,0.5418]},{"header":{"parameterUnit":"m.s-1","parameterCategory":1,"la1":30.2991,"la2":30.254,"lo1":-89.0895,"lo2":-89.0444,"dy":0.0017,"dx":0.0017,"nx":28,"ny":28,"refTime":"2024-04-19T21:00:00:Z","depth":0,"parameterNumber":3,"parameterNumberName":"V-component_of_WINDS"},"data":[0,0,0,0,0,0,0,0,0,0,0,0,0,0,0,0,0,0,0,0,0,0,0,0,0,0,0,0,0,0,0,0,0,0,0,0,0,0,0,0,0,0,0,0,0,0,0,0,0,0,0,0,0,0,0,0,0,0,1.4926,1.4927,0,1.5032,1.5033,1.5034,1.5055,1.5054,1.5053,1.5052,1.5158,1.5161,1.5165,0,0,0,0,0,0,0,0,0,0,0,0,0,1.4736,1.474,1.4925,1.4927,1.4928,1.5032,1.5033,1.5035,1.5055,1.5054,1.5053,1.5052,1.5156,1.5161,1.5165,0,0,0,0,0,0,0,0,0,0,0,0,0,1.4828,1.4741,1.4925,1.4951,1.4954,1.5031,1.5033,1.5035,1.5055,1.5054,1.5052,1.5051,1.5155,1.516,1.5166,1.5224,0,0,1.5182,1.5184,0,0,0,0,0,0,0,0,1.4823,1.4835,1.4946,1.4949,1.4953,1.5029,1.5005,1.5098,1.5055,1.5017,1.5052,1.5051,1.5116,1.5124,1.5147,1.5229,1.5233,1.5182,1.5186,1.5188,1.519,0,0,0,0,0,0,0,1.4816,1.483,1.4967,1.4947,1.4952,1.4956,1.4967,1.5023,1.5072,1.502,1.5022,1.5034,1.5117,1.5141,1.5149,1.5235,1.5182,1.5187,1.519,1.5193,1.5371,1.5372,0,0,0,0,0,0,1.4806,1.4825,1.4964,1.4971,1.4884,1.496,1.4973,1.5006,1.5071,1.508,1.5035,1.5035,1.5133,1.5143,1.5153,1.5227,1.5188,1.5193,1.5196,1.5369,1.5371,1.5373,0,0,0,0,0,0,1.4802,1.4818,1.496,1.4898,1.4917,1.4965,1.5001,1.5008,1.5033,1.5083,1.5091,1.5051,1.5132,1.5146,1.5207,1.5231,1.5195,1.52,1.5368,1.537,1.5372,1.5373,0,0,0,0,0,0,1.4796,1.4817,1.484,1.4899,1.492,1.5012,1.5003,1.5011,1.5042,1.5043,1.51,1.5108,1.5132,1.5198,1.5212,1.5237,1.5205,1.5366,1.5369,1.5371,1.5372,1.5376,1.5379,0,0,0,0,0,1.479,1.4835,1.4841,1.4858,1.495,1.5014,1.5026,1.5054,1.5044,1.5068,1.51,1.5106,1.5225,1.5205,1.522,1.5247,1.5364,1.5368,1.5371,1.537,1.5375,1.5379,0,0,0,0,0,0,1.4777,1.4843,1.4851,1.4917,1.496,1.5017,1.5048,1.5058,1.5103,1.5102,1.5133,1.5146,1.5205,1.5232,1.5208,1.5307,1.5294,1.5301,1.5288,1.5293,1.5297,1.5289,1.5209,0,0,0,0,0,1.4782,1.4829,1.4884,1.4937,1.4958,1.4999,1.5028,1.5046,1.5091,1.5109,1.5145,1.5188,1.5235,1.5265,1.5311,1.5375,1.5388,1.5401,1.5405,1.5408,1.5413,1.545,1.5457,1.5384,1.5384,1.5384,0,0,1.4792,1.4834,1.4862,1.4935,1.4971,1.5018,1.5014,1.5064,1.5099,1.5116,1.5177,1.5205,1.5254,1.5317,1.5347,1.5341,1.5436,1.5412,1.5414,1.5418,1.5454,1.5461,1.5467,1.5386,1.5386,1.5386,0,0,1.4836,1.4872,1.4921,1.4957,1.5011,1.5038,1.505,1.5106,1.5126,1.5187,1.5201,1.5242,1.5323,1.5358,1.5386,1.5444,1.5451,1.5457,1.5477,1.5512,1.5518,1.5523,1.5544,1.5552,1.5463,1.5463,1.5463,0,1.4842,1.4915,1.4945,1.4995,1.5027,1.5045,1.5094,1.5127,1.5193,1.5214,1.5207,1.5309,1.5343,1.5415,1.543,1.5451,1.5466,1.5451,1.5515,1.552,1.5526,1.5546,1.5554,1.5463,1.5463,1.5463,1.5463,0,1.492,1.497,1.5003,1.5068,1.5103,1.5152,1.5189,1.5221,1.5236,1.5263,1.5325,1.5367,1.5423,1.5441,1.5455,1.5515,1.551,1.5509,1.5496,1.5533,1.5553,1.5561,1.5464,1.5464,1.5463,1.5463,0,0,1.4959,1.504,1.5052,1.5082,1.5143,1.5182,1.5231,1.5287,1.5314,1.5358,1.5401,1.5469,1.5468,1.55,1.5518,1.5549,1.5593,1.5544,1.5546,1.5552,1.5662,1.5664,1.5672,1.5598,1.56,1.5601,1.5658,0,1.5011,1.5102,1.513,1.5206,1.5253,1.5271,1.5315,1.5356,1.5383,1.5426,1.5455,1.5503,1.5498,1.5518,1.5549,1.5581,1.5615,1.5577,1.5638,1.564,1.5626,1.5683,1.5684,1.5737,1.5666,1.5668,1.5669,0,1.5083,1.5131,1.5212,1.5268,1.5289,1.5328,1.5381,1.5422,1.5469,1.5486,1.5523,1.5539,1.559,1.5574,1.5646,1.562,1.5646,1.5665,1.5668,1.5675,1.5657,1.5693,1.5754,1.5762,1.5681,1.568,1.5679,0,1.5105,1.5189,1.5249,1.5274,1.534,1.5367,1.5395,1.5442,1.5473,1.5519,1.554,1.5591,1.5619,1.5658,1.5687,1.5672,1.5756,1.5743,1.5772,1.5772,1.579,1.5789,1.5857,1.5805,1.5805,1.5805,1.5805,0,1.516,1.521,1.526,1.5296,1.5352,1.5383,1.5437,1.5466,1.5507,1.5549,1.5567,1.5606,1.5641,1.5685,1.5707,1.5764,1.5776,1.5791,1.5797,1.5791,1.5789,1.5809,1.5806,1.5807,1.5806,1.5806,1.5806,0,1.5194,1.523,1.5296,1.5354,1.537,1.5408,1.5457,1.5493,1.552,1.5574,1.5588,1.5631,1.5683,1.5716,1.5781,1.5796,1.5859,1.5863,1.5844,1.5846,1.5875,1.5872,1.596,1.5973,1.5911,1.5911,1.5912,0,1.5228,1.5266,1.5329,1.5359,1.5389,1.5437,1.547,1.5502,1.5535,1.5592,1.5621,1.5675,1.572,1.5802,1.5838,1.5889,1.5894,1.5922,1.5902,1.5895,1.5896,1.5894,1.5898,1.5925,1.5926,1.5926,1.5926,0,1.5284,1.53,1.5348,1.5402,1.5441,1.5484,1.5528,1.5551,1.559,1.5627,1.5681,1.5716,1.5784,1.5837,1.5891,1.5919,1.5929,1.5932,1.5942,1.5936,1.5924,1.5932,1.5853,1.593,1.593,1.593,1.5929,1.5929,1.532,1.5355,1.5405,1.5458,1.5494,1.5534,1.5571,1.5604,1.565,1.5709,1.5725,1.5782,1.5828,1.5902,1.5931,1.5976,1.5972,1.5985,1.5989,1.5992,1.5994,1.5916,1.5985,1.5985,1.5985,1.5985,1.5985,0,1.5378,1.5411,1.5459,1.552,1.5561,1.5569,1.5617,1.5651,1.5701,1.5744,1.5788,1.5851,1.5902,1.5943,1.5996,1.6023,1.603,1.6036,1.6035,1.6042,1.5993,1.598,1.6031,1.6031,1.6031,1.6031,1.6031,1.6031,1.5413,1.5474,1.5496,1.5574,1.5607,1.5664,1.5691,1.5728,1.5763,1.5833,1.5876,1.5903,1.5945,1.6001,1.6048,1.6059,1.6078,1.6084,1.6095,1.605,1.6045,1.604,1.6028,1.6087,1.6088,1.614,1.614,1.6141]}]]